contact:dominique.lefevre@mio.osupytheas.fr, maurice.libes@osupytheas.fr, didier.mallarino@osupytheas.fr
Project:EMSO http://www.emso-fr.org/EMSO-France
Depth: 2436.0 m
Title:EMSO Ligure Ouest : Data MII capteur MICROCAT
DateTime_Computer,Latitude,Longitude,Temperature,Conductivity,Pressure,DateTime_Instrument
DateTime_Computer,Latitude,Longitude,degC,S m-1,dbar,DateTime_Instrument
2019-10-04T00:01:41Z,42.805,6.029,13.2956,4.59955,2469.9,2019-10-04T02:02:06Z
2019-10-04T00:04:45Z,42.805,6.029,13.2961,4.59960,2469.9,2019-10-04T02:05:09Z
2019-10-04T00:07:48Z,42.805,6.029,13.2958,4.59959,2469.876,2019-10-04T02:08:12Z
2019-10-04T00:10:51Z,42.805,6.029,13.2957,4.59955,2469.937,2019-10-04T02:11:16Z
2019-10-04T00:13:54Z,42.805,6.029,13.2961,4.59955,2469.923,2019-10-04T02:14:19Z
2019-10-04T00:16:57Z,42.805,6.029,13.2959,4.59955,2469.937,2019-10-04T02:17:22Z
2019-10-04T00:20:01Z,42.805,6.029,13.2954,4.59956,2469.9,2019-10-04T02:20:25Z
2019-10-04T00:23:04Z,42.805,6.029,13.2960,4.59958,2469.937,2019-10-04T02:23:28Z
2019-10-04T00:26:07Z,42.805,6.029,13.2971,4.59958,2469.876,2019-10-04T02:26:32Z
2019-10-04T00:29:11Z,42.805,6.029,13.2958,4.59960,2469.89,2019-10-04T02:29:35Z
2019-10-04T00:32:14Z,42.805,6.029,13.2958,4.59957,2469.914,2019-10-04T02:32:38Z
2019-10-04T00:35:17Z,42.805,6.029,13.2964,4.59958,2469.876,2019-10-04T02:35:41Z
2019-10-04T00:38:20Z,42.805,6.029,13.2958,4.59956,2469.914,2019-10-04T02:38:45Z
2019-10-04T00:41:23Z,42.805,6.029,13.2963,4.59956,2469.867,2019-10-04T02:41:48Z
2019-10-04T00:44:27Z,42.805,6.029,13.2959,4.59960,2469.876,2019-10-04T02:44:51Z
2019-10-04T00:47:30Z,42.805,6.029,13.2957,4.59958,2469.876,2019-10-04T02:47:54Z
2019-10-04T00:50:33Z,42.805,6.029,13.2964,4.59959,2469.9,2019-10-04T02:50:57Z
2019-10-04T00:53:36Z,42.805,6.029,13.2961,4.59957,2469.9,2019-10-04T02:54:01Z
2019-10-04T00:56:39Z,42.805,6.029,13.2957,4.59958,2469.923,2019-10-04T02:57:04Z
2019-10-04T00:59:42Z,42.805,6.029,13.2957,4.59956,2469.876,2019-10-04T03:00:07Z
2019-10-04T01:02:46Z,42.805,6.029,13.2958,4.59956,2469.9,2019-10-04T03:03:10Z
2019-10-04T01:05:49Z,42.805,6.029,13.2956,4.59956,2469.9,2019-10-04T03:06:13Z
2019-10-04T01:08:52Z,42.805,6.029,13.2964,4.59962,2469.867,2019-10-04T03:09:16Z
2019-10-04T01:11:55Z,42.805,6.029,13.2956,4.59956,2469.914,2019-10-04T03:12:20Z
2019-10-04T01:14:58Z,42.805,6.029,13.2959,4.59955,2469.9,2019-10-04T03:15:23Z
2019-10-04T01:18:01Z,42.805,6.029,13.2957,4.59959,2469.853,2019-10-04T03:18:26Z
2019-10-04T01:21:05Z,42.805,6.029,13.2961,4.59955,2469.89,2019-10-04T03:21:29Z
2019-10-04T01:24:08Z,42.805,6.029,13.2955,4.59955,2469.867,2019-10-04T03:24:32Z
2019-10-04T01:27:11Z,42.805,6.029,13.2963,4.59956,2469.876,2019-10-04T03:27:36Z
2019-10-04T01:30:14Z,42.805,6.029,13.2962,4.59956,2469.89,2019-10-04T03:30:39Z
2019-10-04T01:33:17Z,42.805,6.029,13.2961,4.59963,2469.853,2019-10-04T03:33:42Z
2019-10-04T01:36:21Z,42.805,6.029,13.2957,4.59954,2469.914,2019-10-04T03:36:45Z
2019-10-04T01:39:24Z,42.805,6.029,13.2958,4.59958,2469.876,2019-10-04T03:39:48Z
2019-10-04T01:42:27Z,42.805,6.029,13.2958,4.59956,2469.876,2019-10-04T03:42:52Z
2019-10-04T01:45:30Z,42.805,6.029,13.2953,4.59955,2469.83,2019-10-04T03:45:55Z
2019-10-04T01:48:33Z,42.805,6.029,13.2958,4.59955,2469.844,2019-10-04T03:48:58Z
2019-10-04T01:51:37Z,42.805,6.029,13.2959,4.59957,2469.853,2019-10-04T03:52:01Z
2019-10-04T01:54:40Z,42.805,6.029,13.2956,4.59956,2469.89,2019-10-04T03:55:04Z
2019-10-04T01:57:43Z,42.805,6.029,13.2958,4.59954,2469.853,2019-10-04T03:58:08Z
2019-10-04T02:00:46Z,42.805,6.029,13.2960,4.59956,2469.853,2019-10-04T04:01:11Z
2019-10-04T02:03:49Z,42.805,6.029,13.2955,4.59954,2469.867,2019-10-04T04:04:14Z
2019-10-04T02:06:53Z,42.805,6.029,13.2957,4.59956,2469.867,2019-10-04T04:07:17Z
2019-10-04T02:09:56Z,42.805,6.029,13.2955,4.59954,2469.876,2019-10-04T04:10:20Z
2019-10-04T02:12:59Z,42.805,6.029,13.2957,4.59956,2469.853,2019-10-04T04:13:24Z
2019-10-04T02:16:02Z,42.805,6.029,13.2960,4.59956,2469.83,2019-10-04T04:16:27Z
2019-10-04T02:19:05Z,42.805,6.029,13.2961,4.59955,2469.876,2019-10-04T04:19:30Z
2019-10-04T02:22:09Z,42.805,6.029,13.2960,4.59958,2469.853,2019-10-04T04:22:33Z
2019-10-04T02:25:12Z,42.805,6.029,13.2961,4.59955,2469.876,2019-10-04T04:25:36Z
2019-10-04T02:28:15Z,42.805,6.029,13.2957,4.59956,2469.853,2019-10-04T04:28:40Z
2019-10-04T02:31:18Z,42.805,6.029,13.2959,4.59956,2469.853,2019-10-04T04:31:43Z
2019-10-04T02:34:22Z,42.805,6.029,13.2959,4.59954,2469.867,2019-10-04T04:34:47Z
2019-10-04T02:37:25Z,42.805,6.029,13.2957,4.59955,2469.853,2019-10-04T04:37:50Z
2019-10-04T02:40:28Z,42.805,6.029,13.2959,4.59953,2469.83,2019-10-04T04:40:53Z
2019-10-04T02:43:31Z,42.805,6.029,13.2957,4.59956,2469.853,2019-10-04T04:43:56Z
2019-10-04T02:46:35Z,42.805,6.029,13.2961,4.59954,2469.853,2019-10-04T04:46:59Z
2019-10-04T02:49:38Z,42.805,6.029,13.2958,4.59955,2469.83,2019-10-04T04:50:02Z
2019-10-04T02:52:41Z,42.805,6.029,13.2961,4.59958,2469.867,2019-10-04T04:53:06Z
2019-10-04T02:55:44Z,42.805,6.029,13.2958,4.59954,2469.876,2019-10-04T04:56:09Z
2019-10-04T02:58:47Z,42.805,6.029,13.2960,4.59953,2469.844,2019-10-04T04:59:12Z
2019-10-04T03:01:51Z,42.805,6.029,13.2956,4.59954,2469.83,2019-10-04T05:02:15Z
2019-10-04T03:04:54Z,42.805,6.029,13.2958,4.59954,2469.83,2019-10-04T05:05:18Z
2019-10-04T03:07:57Z,42.805,6.029,13.2957,4.59954,2469.853,2019-10-04T05:08:21Z
2019-10-04T03:11:00Z,42.805,6.029,13.2957,4.59956,2469.853,2019-10-04T05:11:25Z
2019-10-04T03:14:03Z,42.805,6.029,13.2957,4.59961,2469.83,2019-10-04T05:14:28Z
2019-10-04T03:17:07Z,42.805,6.029,13.2960,4.59954,2469.853,2019-10-04T05:17:32Z
2019-10-04T03:20:10Z,42.805,6.029,13.2958,4.59954,2469.83,2019-10-04T05:20:35Z
2019-10-04T03:23:14Z,42.805,6.029,13.2958,4.59958,2469.83,2019-10-04T05:23:38Z
2019-10-04T03:26:17Z,42.805,6.029,13.2957,4.59954,2469.806,2019-10-04T05:26:41Z
2019-10-04T03:29:20Z,42.805,6.029,13.2960,4.59956,2469.83,2019-10-04T05:29:44Z
2019-10-04T03:32:23Z,42.805,6.029,13.2957,4.59956,2469.853,2019-10-04T05:32:48Z
2019-10-04T03:35:26Z,42.805,6.029,13.2952,4.59956,2469.806,2019-10-04T05:35:51Z
2019-10-04T03:38:29Z,42.805,6.029,13.2957,4.59958,2469.83,2019-10-04T05:38:54Z
2019-10-04T03:41:33Z,42.805,6.029,13.2955,4.59956,2469.844,2019-10-04T05:41:57Z
2019-10-04T03:44:36Z,42.805,6.029,13.2959,4.59953,2469.83,2019-10-04T05:45:00Z
2019-10-04T03:47:39Z,42.805,6.029,13.2956,4.59954,2469.821,2019-10-04T05:48:04Z
2019-10-04T03:50:42Z,42.805,6.029,13.2962,4.59956,2469.83,2019-10-04T05:51:07Z
2019-10-04T03:53:45Z,42.805,6.029,13.2958,4.59955,2469.83,2019-10-04T05:54:10Z
2019-10-04T03:56:49Z,42.805,6.029,13.2955,4.59960,2469.858,2019-10-04T05:57:13Z
2019-10-04T03:59:52Z,42.805,6.029,13.2958,4.59955,2469.821,2019-10-04T06:00:16Z
2019-10-04T04:02:55Z,42.805,6.029,13.2958,4.59956,2469.83,2019-10-04T06:03:19Z
2019-10-04T04:05:58Z,42.805,6.029,13.2956,4.59954,2469.83,2019-10-04T06:06:23Z
2019-10-04T04:09:01Z,42.805,6.029,13.2957,4.59958,2469.83,2019-10-04T06:09:26Z
2019-10-04T04:12:05Z,42.805,6.029,13.2955,4.59954,2469.844,2019-10-04T06:12:29Z
2019-10-04T04:15:08Z,42.805,6.029,13.2960,4.59954,2469.83,2019-10-04T06:15:32Z
2019-10-04T04:18:11Z,42.805,6.029,13.2967,4.59954,2469.83,2019-10-04T06:18:35Z
2019-10-04T04:21:14Z,42.805,6.029,13.2957,4.59956,2469.83,2019-10-04T06:21:39Z
2019-10-04T04:24:17Z,42.805,6.029,13.2961,4.59955,2469.83,2019-10-04T06:24:42Z
2019-10-04T04:27:21Z,42.805,6.029,13.2959,4.59956,2469.83,2019-10-04T06:27:45Z
2019-10-04T04:30:24Z,42.805,6.029,13.2958,4.59956,2469.83,2019-10-04T06:30:48Z
2019-10-04T04:33:27Z,42.805,6.029,13.2957,4.59954,2469.783,2019-10-04T06:33:52Z
2019-10-04T04:36:30Z,42.805,6.029,13.2959,4.59957,2469.83,2019-10-04T06:36:55Z
2019-10-04T04:39:33Z,42.805,6.029,13.2958,4.59958,2469.867,2019-10-04T06:39:58Z
2019-10-04T04:42:37Z,42.805,6.029,13.2960,4.59956,2469.844,2019-10-04T06:43:01Z
2019-10-04T04:45:40Z,42.805,6.029,13.2958,4.59955,2469.83,2019-10-04T06:46:04Z
2019-10-04T04:48:43Z,42.805,6.029,13.2958,4.59956,2469.821,2019-10-04T06:49:08Z
2019-10-04T04:51:46Z,42.805,6.029,13.2958,4.59958,2469.83,2019-10-04T06:52:11Z
2019-10-04T04:54:50Z,42.805,6.029,13.2958,4.59956,2469.844,2019-10-04T06:55:14Z
2019-10-04T04:57:53Z,42.805,6.029,13.2961,4.59955,2469.816,2019-10-04T06:58:17Z
2019-10-04T05:00:56Z,42.805,6.029,13.2958,4.59956,2469.844,2019-10-04T07:01:21Z
2019-10-04T05:03:59Z,42.805,6.029,13.2958,4.59954,2469.844,2019-10-04T07:04:24Z
2019-10-04T05:07:02Z,42.805,6.029,13.2959,4.59955,2469.816,2019-10-04T07:07:27Z
2019-10-04T05:10:05Z,42.805,6.029,13.2952,4.59954,2469.821,2019-10-04T07:10:30Z
2019-10-04T05:13:09Z,42.805,6.029,13.2960,4.59954,2469.821,2019-10-04T07:13:33Z
2019-10-04T05:16:12Z,42.805,6.029,13.2957,4.59955,2469.844,2019-10-04T07:16:36Z
2019-10-04T05:19:15Z,42.805,6.029,13.2957,4.59957,2469.821,2019-10-04T07:19:40Z
2019-10-04T05:22:18Z,42.805,6.029,13.2956,4.59954,2469.806,2019-10-04T07:22:43Z
2019-10-04T05:25:22Z,42.805,6.029,13.2957,4.59954,2469.844,2019-10-04T07:25:46Z
2019-10-04T05:28:25Z,42.805,6.029,13.2958,4.59956,2469.821,2019-10-04T07:28:49Z
2019-10-04T05:31:28Z,42.805,6.029,13.2962,4.59956,2469.821,2019-10-04T07:31:52Z
2019-10-04T05:34:31Z,42.805,6.029,13.2961,4.59956,2469.844,2019-10-04T07:34:56Z
2019-10-04T05:37:34Z,42.805,6.029,13.2961,4.59955,2469.783,2019-10-04T07:37:59Z
2019-10-04T05:40:38Z,42.805,6.029,13.2960,4.59955,2469.806,2019-10-04T07:41:02Z
2019-10-04T05:43:41Z,42.805,6.029,13.2956,4.59955,2469.821,2019-10-04T07:44:05Z
2019-10-04T05:46:44Z,42.805,6.029,13.2957,4.59956,2469.83,2019-10-04T07:47:08Z
2019-10-04T05:49:47Z,42.805,6.029,13.2961,4.59954,2469.867,2019-10-04T07:50:12Z
2019-10-04T05:52:50Z,42.805,6.029,13.2958,4.59954,2469.821,2019-10-04T07:53:15Z
2019-10-04T05:55:53Z,42.805,6.029,13.2959,4.59954,2469.853,2019-10-04T07:56:18Z
2019-10-04T05:58:57Z,42.805,6.029,13.2956,4.59954,2469.821,2019-10-04T07:59:21Z
2019-10-04T06:02:00Z,42.805,6.029,13.2956,4.59955,2469.806,2019-10-04T08:02:24Z
2019-10-04T06:05:03Z,42.805,6.029,13.2959,4.59954,2469.821,2019-10-04T08:05:28Z
2019-10-04T06:08:06Z,42.805,6.029,13.2959,4.59963,2469.844,2019-10-04T08:08:31Z
2019-10-04T06:11:10Z,42.805,6.029,13.2958,4.59956,2469.844,2019-10-04T08:11:34Z
2019-10-04T06:14:13Z,42.805,6.029,13.2957,4.59954,2469.867,2019-10-04T08:14:37Z
2019-10-04T06:17:16Z,42.805,6.029,13.2958,4.59956,2469.853,2019-10-04T08:17:40Z
2019-10-04T06:20:19Z,42.805,6.029,13.2958,4.59964,2469.844,2019-10-04T08:20:44Z
2019-10-04T06:23:22Z,42.805,6.029,13.2960,4.59957,2469.853,2019-10-04T08:23:47Z
2019-10-04T06:26:25Z,42.805,6.029,13.2959,4.59971,2469.853,2019-10-04T08:26:50Z
2019-10-04T06:29:29Z,42.805,6.029,13.2958,4.59956,2469.83,2019-10-04T08:29:53Z
2019-10-04T06:32:32Z,42.805,6.029,13.2962,4.59956,2469.821,2019-10-04T08:32:56Z
2019-10-04T06:35:35Z,42.805,6.029,13.2957,4.59956,2469.806,2019-10-04T08:36:00Z
2019-10-04T06:38:38Z,42.805,6.029,13.2960,4.59958,2469.853,2019-10-04T08:39:03Z
2019-10-04T06:41:42Z,42.805,6.029,13.2957,4.59964,2469.806,2019-10-04T08:42:06Z
2019-10-04T06:44:45Z,42.805,6.029,13.2958,4.59955,2469.844,2019-10-04T08:45:09Z
2019-10-04T06:47:48Z,42.805,6.029,13.2952,4.59956,2469.853,2019-10-04T08:48:13Z
2019-10-04T06:50:51Z,42.805,6.029,13.2957,4.59956,2469.867,2019-10-04T08:51:16Z
2019-10-04T06:53:54Z,42.805,6.029,13.2957,4.59956,2469.876,2019-10-04T08:54:19Z
2019-10-04T06:56:58Z,42.805,6.029,13.2955,4.59956,2469.83,2019-10-04T08:57:22Z
2019-10-04T07:00:01Z,42.805,6.029,13.2956,4.59954,2469.853,2019-10-04T09:00:25Z
2019-10-04T07:03:04Z,42.805,6.029,13.2957,4.59955,2469.83,2019-10-04T09:03:28Z
2019-10-04T07:06:07Z,42.805,6.029,13.2957,4.59955,2469.853,2019-10-04T09:06:32Z
2019-10-04T07:09:10Z,42.805,6.029,13.2960,4.59956,2469.839,2019-10-04T09:09:35Z
2019-10-04T07:12:13Z,42.805,6.029,13.2958,4.59956,2469.867,2019-10-04T09:12:38Z
2019-10-04T07:15:17Z,42.805,6.029,13.2957,4.59954,2469.89,2019-10-04T09:15:41Z
2019-10-04T07:18:20Z,42.805,6.029,13.2955,4.59954,2469.844,2019-10-04T09:18:44Z
2019-10-04T07:21:23Z,42.805,6.029,13.2957,4.59956,2469.9,2019-10-04T09:21:48Z
2019-10-04T07:24:26Z,42.805,6.029,13.2958,4.59955,2469.89,2019-10-04T09:24:51Z
2019-10-04T07:27:29Z,42.805,6.029,13.2957,4.59956,2469.853,2019-10-04T09:27:54Z
2019-10-04T07:30:33Z,42.805,6.029,13.2957,4.59954,2469.9,2019-10-04T09:30:57Z
2019-10-04T07:33:36Z,42.805,6.029,13.2956,4.59955,2469.876,2019-10-04T09:34:00Z
2019-10-04T07:36:39Z,42.805,6.029,13.2957,4.59958,2469.876,2019-10-04T09:37:04Z
2019-10-04T07:39:42Z,42.805,6.029,13.2957,4.59956,2469.89,2019-10-04T09:40:07Z
2019-10-04T07:42:45Z,42.805,6.029,13.2959,4.59955,2469.867,2019-10-04T09:43:10Z
2019-10-04T07:45:49Z,42.805,6.029,13.2958,4.59956,2469.89,2019-10-04T09:46:13Z
2019-10-04T07:48:52Z,42.805,6.029,13.2957,4.59954,2469.9,2019-10-04T09:49:16Z
2019-10-04T07:51:55Z,42.805,6.029,13.2959,4.59955,2469.9,2019-10-04T09:52:20Z
2019-10-04T07:54:58Z,42.805,6.029,13.2957,4.59956,2469.876,2019-10-04T09:55:23Z
2019-10-04T07:58:01Z,42.805,6.029,13.2958,4.59956,2469.876,2019-10-04T09:58:26Z
2019-10-04T08:01:05Z,42.805,6.029,13.2956,4.59955,2469.914,2019-10-04T10:01:29Z
2019-10-04T08:04:08Z,42.805,6.029,13.2957,4.59955,2469.9,2019-10-04T10:04:32Z
2019-10-04T08:07:11Z,42.805,6.029,13.2957,4.59957,2469.923,2019-10-04T10:07:36Z
2019-10-04T08:10:14Z,42.805,6.029,13.2959,4.59956,2469.9,2019-10-04T10:10:39Z
2019-10-04T08:13:18Z,42.805,6.029,13.2957,4.59955,2469.914,2019-10-04T10:13:42Z
2019-10-04T08:16:21Z,42.805,6.029,13.2957,4.59956,2469.937,2019-10-04T10:16:45Z
2019-10-04T08:19:24Z,42.805,6.029,13.2959,4.59956,2469.9,2019-10-04T10:19:48Z
2019-10-04T08:22:27Z,42.805,6.029,13.2958,4.59956,2469.9,2019-10-04T10:22:52Z
2019-10-04T08:25:30Z,42.805,6.029,13.2959,4.59955,2469.923,2019-10-04T10:25:55Z
2019-10-04T08:28:34Z,42.805,6.029,13.2958,4.59956,2469.876,2019-10-04T10:28:58Z
2019-10-04T08:31:37Z,42.805,6.029,13.2957,4.59956,2469.947,2019-10-04T10:32:01Z
2019-10-04T08:34:40Z,42.805,6.029,13.2958,4.59963,2469.937,2019-10-04T10:35:05Z
2019-10-04T08:37:43Z,42.805,6.029,13.2957,4.59962,2469.947,2019-10-04T10:38:08Z
2019-10-04T08:40:47Z,42.805,6.029,13.2954,4.59956,2469.96,2019-10-04T10:41:11Z
2019-10-04T08:43:50Z,42.805,6.029,13.2957,4.59957,2469.923,2019-10-04T10:44:14Z
2019-10-04T08:46:53Z,42.805,6.029,13.2957,4.59956,2469.923,2019-10-04T10:47:17Z
2019-10-04T08:49:56Z,42.805,6.029,13.2958,4.59956,2469.96,2019-10-04T10:50:21Z
2019-10-04T08:52:59Z,42.805,6.029,13.2958,4.59956,2469.956,2019-10-04T10:53:24Z
2019-10-04T08:56:03Z,42.805,6.029,13.2959,4.59962,2469.947,2019-10-04T10:56:27Z
2019-10-04T08:59:06Z,42.805,6.029,13.2957,4.59957,2469.993,2019-10-04T10:59:30Z
2019-10-04T09:02:09Z,42.805,6.029,13.2958,4.59957,2469.97,2019-10-04T11:02:33Z
2019-10-04T09:05:12Z,42.805,6.029,13.2957,4.59957,2469.97,2019-10-04T11:05:37Z
2019-10-04T09:08:15Z,42.805,6.029,13.2959,4.59957,2469.97,2019-10-04T11:08:40Z
2019-10-04T09:11:19Z,42.805,6.029,13.2964,4.59956,2469.97,2019-10-04T11:11:43Z
2019-10-04T09:14:22Z,42.805,6.029,13.2955,4.59956,2469.984,2019-10-04T11:14:46Z
2019-10-04T09:17:25Z,42.805,6.029,13.2960,4.59957,2469.97,2019-10-04T11:17:50Z
2019-10-04T09:20:28Z,42.805,6.029,13.2961,4.59957,2469.97,2019-10-04T11:20:53Z
2019-10-04T09:23:32Z,42.805,6.029,13.2961,4.59958,2469.97,2019-10-04T11:23:56Z
2019-10-04T09:26:35Z,42.805,6.029,13.2959,4.59965,2469.97,2019-10-04T11:26:59Z
2019-10-04T09:29:38Z,42.805,6.029,13.2955,4.59959,2469.984,2019-10-04T11:30:03Z
2019-10-04T09:32:41Z,42.805,6.029,13.2958,4.59956,2469.984,2019-10-04T11:33:06Z
2019-10-04T09:35:44Z,42.805,6.029,13.2958,4.59958,2469.993,2019-10-04T11:36:09Z
2019-10-04T09:38:48Z,42.805,6.029,13.2958,4.59957,2469.97,2019-10-04T11:39:12Z
2019-10-04T09:41:51Z,42.805,6.029,13.2958,4.59956,2469.993,2019-10-04T11:42:15Z
2019-10-04T09:44:54Z,42.805,6.029,13.2960,4.59957,2469.993,2019-10-04T11:45:19Z
2019-10-04T09:47:57Z,42.805,6.029,13.2959,4.59958,2469.97,2019-10-04T11:48:22Z
2019-10-04T09:51:00Z,42.805,6.029,13.2957,4.59961,2469.97,2019-10-04T11:51:25Z
2019-10-04T09:54:04Z,42.805,6.029,13.2960,4.59956,2469.993,2019-10-04T11:54:28Z
2019-10-04T09:57:07Z,42.805,6.029,13.2955,4.59959,2470.017,2019-10-04T11:57:31Z
2019-10-04T10:00:10Z,42.805,6.029,13.2957,4.59956,2469.993,2019-10-04T12:00:35Z
2019-10-04T10:03:13Z,42.805,6.029,13.2957,4.59956,2470.007,2019-10-04T12:03:38Z
2019-10-04T10:06:16Z,42.805,6.029,13.2958,4.59956,2469.993,2019-10-04T12:06:41Z
2019-10-04T10:09:20Z,42.805,6.029,13.2958,4.59957,2470.017,2019-10-04T12:09:44Z
2019-10-04T10:12:23Z,42.805,6.029,13.2955,4.59958,2470.007,2019-10-04T12:12:47Z
2019-10-04T10:15:26Z,42.805,6.029,13.2957,4.59956,2470.017,2019-10-04T12:15:51Z
2019-10-04T10:18:29Z,42.805,6.029,13.2961,4.59961,2469.993,2019-10-04T12:18:54Z
2019-10-04T10:21:32Z,42.805,6.029,13.2957,4.59956,2470.03,2019-10-04T12:21:57Z
2019-10-04T10:24:36Z,42.805,6.029,13.2958,4.59956,2469.984,2019-10-04T12:25:00Z
2019-10-04T10:27:39Z,42.805,6.029,13.2958,4.59957,2470.017,2019-10-04T12:28:03Z
2019-10-04T10:30:42Z,42.805,6.029,13.2958,4.59957,2470.03,2019-10-04T12:31:07Z
2019-10-04T10:33:45Z,42.805,6.029,13.2960,4.59958,2469.993,2019-10-04T12:34:10Z
2019-10-04T10:36:49Z,42.805,6.029,13.2955,4.59956,2470.017,2019-10-04T12:37:13Z
2019-10-04T10:39:52Z,42.805,6.029,13.2959,4.59961,2470.017,2019-10-04T12:40:16Z
2019-10-04T10:42:55Z,42.805,6.029,13.2957,4.59963,2470.017,2019-10-04T12:43:20Z
2019-10-04T10:45:58Z,42.805,6.029,13.2957,4.59957,2470.017,2019-10-04T12:46:23Z
2019-10-04T10:49:01Z,42.805,6.029,13.2962,4.59957,2470.017,2019-10-04T12:49:26Z
2019-10-04T10:52:05Z,42.805,6.029,13.2958,4.59958,2470.017,2019-10-04T12:52:29Z
2019-10-04T10:55:08Z,42.805,6.029,13.2960,4.59958,2469.993,2019-10-04T12:55:32Z
2019-10-04T10:58:11Z,42.805,6.029,13.2953,4.59958,2470.007,2019-10-04T12:58:36Z
2019-10-04T11:01:14Z,42.805,6.029,13.2959,4.59958,2470.017,2019-10-04T13:01:39Z
2019-10-04T11:04:17Z,42.805,6.029,13.2957,4.59960,2470.007,2019-10-04T13:04:42Z
2019-10-04T11:07:21Z,42.805,6.029,13.2961,4.59957,2470.03,2019-10-04T13:07:45Z
2019-10-04T11:10:24Z,42.805,6.029,13.2960,4.59958,2469.993,2019-10-04T13:10:48Z
2019-10-04T11:13:27Z,42.805,6.029,13.2958,4.59957,2470.03,2019-10-04T13:13:52Z
2019-10-04T11:16:30Z,42.805,6.029,13.2958,4.59958,2469.993,2019-10-04T13:16:55Z
2019-10-04T11:19:33Z,42.805,6.029,13.2957,4.59960,2470.017,2019-10-04T13:19:58Z
2019-10-04T11:22:37Z,42.805,6.029,13.2961,4.59959,2470.03,2019-10-04T13:23:01Z
2019-10-04T11:25:40Z,42.805,6.029,13.2961,4.59961,2470.007,2019-10-04T13:26:04Z
2019-10-04T11:28:43Z,42.805,6.029,13.2957,4.59957,2469.993,2019-10-04T13:29:08Z
2019-10-04T11:31:46Z,42.805,6.029,13.2961,4.59956,2470.007,2019-10-04T13:32:11Z
2019-10-04T11:34:49Z,42.805,6.029,13.2959,4.59958,2470.04,2019-10-04T13:35:14Z
2019-10-04T11:37:53Z,42.805,6.029,13.2958,4.59957,2469.97,2019-10-04T13:38:17Z
2019-10-04T11:40:56Z,42.805,6.029,13.2955,4.59956,2470.04,2019-10-04T13:41:20Z
2019-10-04T11:43:59Z,42.805,6.029,13.2957,4.59956,2469.993,2019-10-04T13:44:23Z
2019-10-04T11:47:02Z,42.805,6.029,13.2958,4.59958,2470.017,2019-10-04T13:47:27Z
2019-10-04T11:50:05Z,42.805,6.029,13.2957,4.59957,2470.03,2019-10-04T13:50:30Z
2019-10-04T11:53:09Z,42.805,6.029,13.2954,4.59957,2470.007,2019-10-04T13:53:33Z
2019-10-04T11:56:12Z,42.805,6.029,13.2959,4.59973,2469.979,2019-10-04T13:56:36Z
2019-10-04T11:59:15Z,42.805,6.029,13.2959,4.59956,2470.017,2019-10-04T13:59:40Z
2019-10-04T12:02:18Z,42.805,6.029,13.2957,4.59957,2470.007,2019-10-04T14:02:43Z
2019-10-04T12:05:21Z,42.805,6.029,13.2958,4.59956,2469.993,2019-10-04T14:05:46Z
2019-10-04T12:08:25Z,42.805,6.029,13.2957,4.59956,2469.993,2019-10-04T14:08:49Z
2019-10-04T12:11:28Z,42.805,6.029,13.2956,4.59955,2470.007,2019-10-04T14:11:52Z
2019-10-04T12:14:31Z,42.805,6.029,13.2959,4.59955,2470.007,2019-10-04T14:14:55Z
2019-10-04T12:17:34Z,42.805,6.029,13.2958,4.59955,2470.03,2019-10-04T14:17:59Z
2019-10-04T12:20:37Z,42.805,6.029,13.2956,4.59957,2470.017,2019-10-04T14:21:02Z
2019-10-04T12:23:41Z,42.805,6.029,13.2956,4.59959,2469.993,2019-10-04T14:24:05Z
2019-10-04T12:26:44Z,42.805,6.029,13.2959,4.59958,2469.97,2019-10-04T14:27:08Z
2019-10-04T12:29:47Z,42.805,6.029,13.2957,4.59956,2469.97,2019-10-04T14:30:12Z
2019-10-04T12:32:50Z,42.805,6.029,13.2957,4.59956,2469.993,2019-10-04T14:33:15Z
2019-10-04T12:35:54Z,42.805,6.029,13.2958,4.59956,2469.97,2019-10-04T14:36:18Z
2019-10-04T12:38:57Z,42.805,6.029,13.2958,4.59958,2469.97,2019-10-04T14:39:21Z
2019-10-04T12:42:00Z,42.805,6.029,13.2956,4.59957,2469.984,2019-10-04T14:42:25Z
2019-10-04T12:45:03Z,42.805,6.029,13.2960,4.59958,2470.007,2019-10-04T14:45:28Z
2019-10-04T12:48:06Z,42.805,6.029,13.2958,4.59961,2469.97,2019-10-04T14:48:31Z
2019-10-04T12:51:10Z,42.805,6.029,13.2957,4.59958,2469.947,2019-10-04T14:51:34Z
2019-10-04T12:54:13Z,42.805,6.029,13.2957,4.59956,2469.993,2019-10-04T14:54:37Z
2019-10-04T12:57:16Z,42.805,6.029,13.2961,4.59958,2469.97,2019-10-04T14:57:40Z
2019-10-04T13:00:19Z,42.805,6.029,13.2957,4.59956,2469.97,2019-10-04T15:00:44Z
2019-10-04T13:03:22Z,42.805,6.029,13.2960,4.59961,2469.97,2019-10-04T15:03:47Z
2019-10-04T13:06:25Z,42.805,6.029,13.2960,4.59958,2469.984,2019-10-04T15:06:50Z
2019-10-04T13:09:29Z,42.805,6.029,13.2958,4.59958,2469.947,2019-10-04T15:09:53Z
2019-10-04T13:12:32Z,42.805,6.029,13.2957,4.59956,2469.97,2019-10-04T15:12:56Z
2019-10-04T13:15:35Z,42.805,6.029,13.2956,4.59957,2469.993,2019-10-04T15:16:00Z
2019-10-04T13:18:38Z,42.805,6.029,13.2957,4.59957,2469.984,2019-10-04T15:19:03Z
2019-10-04T13:21:41Z,42.805,6.029,13.2961,4.59956,2469.993,2019-10-04T15:22:06Z
2019-10-04T13:24:45Z,42.805,6.029,13.2960,4.59957,2469.97,2019-10-04T15:25:09Z
2019-10-04T13:27:48Z,42.805,6.029,13.2954,4.59956,2469.993,2019-10-04T15:28:12Z
2019-10-04T13:30:51Z,42.805,6.029,13.2959,4.59958,2469.97,2019-10-04T15:31:15Z
2019-10-04T13:33:54Z,42.805,6.029,13.2958,4.59957,2470.007,2019-10-04T15:34:19Z
2019-10-04T13:36:57Z,42.805,6.029,13.2961,4.59958,2470.007,2019-10-04T15:37:22Z
2019-10-04T13:40:01Z,42.805,6.029,13.2957,4.59964,2469.97,2019-10-04T15:40:25Z
2019-10-04T13:43:04Z,42.805,6.029,13.2958,4.59956,2469.97,2019-10-04T15:43:28Z
2019-10-04T13:46:07Z,42.805,6.029,13.2958,4.59958,2470.007,2019-10-04T15:46:32Z
2019-10-04T13:49:10Z,42.805,6.029,13.2957,4.59956,2469.947,2019-10-04T15:49:35Z
2019-10-04T13:52:13Z,42.805,6.029,13.2961,4.59956,2469.984,2019-10-04T15:52:38Z
2019-10-04T13:55:17Z,42.805,6.029,13.2957,4.59957,2469.984,2019-10-04T15:55:41Z
2019-10-04T13:58:20Z,42.805,6.029,13.2961,4.59958,2469.947,2019-10-04T15:58:44Z
2019-10-04T14:01:23Z,42.805,6.029,13.2956,4.59956,2469.947,2019-10-04T16:01:48Z
2019-10-04T14:04:26Z,42.805,6.029,13.2961,4.59957,2469.947,2019-10-04T16:04:51Z
2019-10-04T14:07:29Z,42.805,6.029,13.2961,4.59958,2470.007,2019-10-04T16:07:54Z
2019-10-04T14:10:33Z,42.805,6.029,13.2957,4.59957,2469.947,2019-10-04T16:10:57Z
2019-10-04T14:13:36Z,42.805,6.029,13.2958,4.59961,2469.937,2019-10-04T16:14:00Z
2019-10-04T14:16:39Z,42.805,6.029,13.2959,4.59957,2469.97,2019-10-04T16:17:04Z
2019-10-04T14:19:42Z,42.805,6.029,13.2957,4.59959,2469.97,2019-10-04T16:20:07Z
2019-10-04T14:22:45Z,42.805,6.029,13.2958,4.59956,2469.984,2019-10-04T16:23:10Z
2019-10-04T14:25:49Z,42.805,6.029,13.2956,4.59957,2469.984,2019-10-04T16:26:13Z
2019-10-04T14:28:52Z,42.805,6.029,13.2960,4.59958,2469.984,2019-10-04T16:29:16Z
2019-10-04T14:31:55Z,42.805,6.029,13.2961,4.59957,2469.923,2019-10-04T16:32:20Z
2019-10-04T14:34:58Z,42.805,6.029,13.2958,4.59956,2469.984,2019-10-04T16:35:23Z
2019-10-04T14:38:01Z,42.805,6.029,13.2957,4.59958,2469.96,2019-10-04T16:38:26Z
2019-10-04T14:41:05Z,42.805,6.029,13.2957,4.59957,2469.947,2019-10-04T16:41:29Z
2019-10-04T14:44:08Z,42.805,6.029,13.2960,4.59957,2469.937,2019-10-04T16:44:32Z
2019-10-04T14:47:11Z,42.805,6.029,13.2961,4.59957,2469.97,2019-10-04T16:47:36Z
2019-10-04T14:50:14Z,42.805,6.029,13.2964,4.59956,2469.97,2019-10-04T16:50:39Z
2019-10-04T14:53:17Z,42.805,6.029,13.2956,4.59956,2469.97,2019-10-04T16:53:42Z
2019-10-04T14:56:20Z,42.805,6.029,13.2959,4.59957,2469.923,2019-10-04T16:56:45Z
2019-10-04T14:59:24Z,42.805,6.029,13.2959,4.59958,2469.96,2019-10-04T16:59:48Z
2019-10-04T15:02:27Z,42.805,6.029,13.2957,4.59958,2469.947,2019-10-04T17:02:51Z